Location: *
(45.9500°N, 9.0833°E)
Time: 19:45:28
(UTC+00:00)

Transit 2A - All Passes

Search period start: 13 June 2021 00:00
Search period end: 23 June 2021 00:00
Orbit: 601 x 958 km, 66.7° (Epoch: 13 June)

Date Brightness Start Highest point End Pass type
(mag) Time Alt. Az. Time Alt. Az. Time Alt. Az.
13 Jun - 01:16:31 10° NNW 01:20:58 37° NE 01:25:50 10° ESE visible
13 Jun - 02:59:37 10° NW 03:04:07 36° WSW 03:09:02 10° S daylight
13 Jun - 16:02:05 10° SE 16:04:01 13° ESE 16:05:58 10° E daylight
13 Jun - 17:42:11 10° SW 17:46:31 72° NW 17:50:54 10° NNE daylight
13 Jun - 19:28:20 10° WNW 19:30:31 13° NNW 19:32:43 10° N daylight
14 Jun - 00:42:31 10° NNW 00:46:39 28° NE 00:51:05 10° ESE visible
14 Jun - 02:25:15 10° NW 02:30:01 52° WSW 02:35:16 10° SSE visible
14 Jun - 17:08:00 10° SSW 17:12:20 76° ESE 17:16:43 10° NE daylight
14 Jun - 18:53:05 10° W 18:56:01 17° NW 18:59:01 10° N daylight
15 Jun - 00:08:36 10° N 00:12:16 21° NE 00:16:09 10° E visible
15 Jun - 01:50:59 10° NW 01:55:52 76° WSW 02:01:17 10° SSE visible
15 Jun - 03:37:06 10° W 03:38:21 11° WSW 03:39:38 10° WSW daylight
15 Jun - 16:34:01 10° SSW 16:38:13 49° ESE 16:42:26 10° NE daylight
15 Jun - 18:18:06 10° W 18:21:36 23° NW 18:25:09 10° NNE daylight
15 Jun - 23:34:46 10° N 23:37:49 16° NE 23:41:01 10° ENE visible
16 Jun - 01:16:47 10° NNW 01:21:41 77° NE 01:27:05 10° SE visible
16 Jun - 03:01:15 10° WNW 03:04:22 16° WSW 03:07:41 10° SW daylight
16 Jun - 16:00:16 10° S 16:04:08 32° ESE 16:08:01 10° NE daylight
16 Jun - 17:43:20 10° WSW 17:47:14 31° NW 17:51:12 10° NNE daylight
16 Jun - 23:01:06 10° N 23:03:19 13° NNE 23:05:35 10° ENE visible
17 Jun - 00:42:40 10° NNW 00:47:27 55° NE 00:52:43 10° SE visible
17 Jun - 02:26:23 10° WNW 02:30:22 24° WSW 02:34:39 10° SSW visible
17 Jun - 15:26:49 10° SSE 15:30:07 21° ESE 15:33:25 10° ENE daylight
17 Jun - 17:08:46 10° SW 17:12:56 44° NW 17:17:10 10° NNE daylight
17 Jun - 18:57:16 10° NNW 18:57:18 10° NNW 18:57:20 10° NNW daylight
17 Jun - 22:28:08 10° NNE 22:28:45 10° NNE 22:29:21 10° NE visible
18 Jun - 00:08:37 10° NNW 00:13:11 40° NE 00:18:11 10° ESE visible
18 Jun - 01:51:48 10° NW 01:56:18 34° WSW 02:01:12 10° S visible
18 Jun - 14:53:53 10° SE 14:56:08 14° ESE 14:58:23 10° ENE daylight
18 Jun - 16:34:22 10° SW 16:38:40 66° NW 16:43:04 10° NNE daylight
18 Jun - 18:20:43 10° WNW 18:22:44 13° NNW 18:24:47 10° N daylight
18 Jun - 23:34:36 10° NNW 23:38:52 30° NE 23:43:28 10° ESE visible
19 Jun - 01:17:24 10° NW 01:22:12 49° WSW 01:27:28 10° S visible
19 Jun - 16:00:08 10° SSW 16:04:29 82° ESE 16:08:53 10° NE daylight
19 Jun - 17:45:24 10° WNW 17:48:14 17° NW 17:51:07 10° N daylight
19 Jun - 23:00:39 10° N 23:04:29 23° NE 23:08:35 10° E visible
20 Jun - 00:43:07 10° NW 00:48:03 71° WSW 00:53:31 10° SSE visible
20 Jun - 02:30:05 10° W 02:30:30 10° WSW 02:30:55 10° WSW visible
20 Jun - 15:26:07 10° SSW 15:30:21 53° ESE 15:34:38 10° NE daylight
20 Jun - 17:10:23 10° W 17:13:47 22° NW 17:17:17 10° N daylight
20 Jun - 22:26:47 10° N 22:30:03 18° NE 22:33:29 10° E visible
21 Jun - 00:08:55 10° NNW 00:13:52 83° ENE 00:19:22 10° SE visible
21 Jun - 01:53:33 10° WNW 01:56:32 16° WSW 01:59:40 10° SW visible
21 Jun - 14:52:19 10° S 14:56:16 35° ESE 15:00:14 10° NE daylight
21 Jun - 16:35:35 10° WSW 16:39:25 29° NW 16:43:20 10° NNE daylight
21 Jun - 21:53:04 10° N 21:55:33 14° NNE 21:58:09 10° ENE visible
21 Jun - 23:34:47 10° NNW 23:39:39 59° NE 23:45:02 10° SE visible
22 Jun - 01:18:36 10° WNW 01:22:32 23° WSW 01:26:44 10° SSW visible
22 Jun - 14:18:48 10° SSE 14:22:14 23° ESE 14:25:40 10° ENE daylight
22 Jun - 16:00:58 10° WSW 16:05:05 41° NW 16:09:19 10° NNE daylight
22 Jun - 21:19:42 10° NNE 21:21:00 11° NNE 21:22:20 10° NE visible
22 Jun - 23:00:42 10° NNW 23:05:23 43° NE 23:10:31 10° ESE visible
